Regional Weather Roundup
Issued by NWS

Home | Current Version | Previous Version | Graphics & Text | Print | Product List | Glossary On
Versions: 1 2 3 4 5 6 7 8 9 10 11 12 13 14 15 16 17 18 19 20 21 22 23 24 25 26 27 28 29 30 31 32 33 34 35 36 37 38 39 40 41 42 43 44 45 46 47 48 49 50
000
ASUS43 KDTX 211301
RWRMI
MICHIGAN HOURLY REGIONAL WEATHER ROUNDUP
NATIONAL WEATHER SERVICE DETROIT/PONTIAC MI
900 AM EDT MON MAY 21 2018

NOTE: "FAIR" INDICATES FEW OR NO CLOUDS BELOW 12,000 FEET WITH NO
SIGNIFICANT WEATHER AND/OR OBSTRUCTION TO VISIBILITY.

MIZ047>049-052>055-059>063-066>070-074>076-081>083-211400-
SOUTHEAST LOWER MICHIGAN

CITY           SKY/WX    TMP DP  RH WIND       PRES   REMARKS
ADRIAN         PTSUNNY   54  46  74 SE10      30.25R
ALMA           FAIR      52  52 100 E10       30.26S FOG
ANN ARBOR      FAIR      57  47  69 NE8       30.24S
BAD AXE        FAIR      50  47  89 E5        30.27S
CARO           FAIR      50  44  81 E3        30.26R
DETROIT CITY   FAIR      55  42  61 E5        30.27R
DETROIT        PTSUNNY   58  40  51 E12       30.25S
FLINT          FAIR      54  44  69 E10       30.26R
GROSSE ILE     FAIR      56  45  65 NE7       30.24F
HILLSDALE      PTSUNNY   54  46  76 E13       30.23R
HOWELL         FAIR      56  46  68 E9        30.25S

CITY           SKY/WX    TMP DP  RH WIND       PRES   REMARKS
JACKSON        FAIR      58  46  64 E9        30.23R
LAMBERTVILLE   CLOUDY    57  48  70 E9        30.24R
LANSING        FAIR      56  49  77 E14       30.24S
LAPEER         FAIR      51  40  64 E5        30.27R
MASON          FAIR      56  47  72 E8        30.24R
MONROE         FAIR      55  42  63 E7        30.24S
PONTIAC        PTSUNNY   55  37  50 E8        30.24R
PORT HOPE        N/A     51  48  89 CALM      30.25S
PORT HURON     FAIR      52  41  66 NE3       30.28R
TRI CITIES     FOG       51  51 100 SE6       30.27R VSB<1/4
MIDLAND        PTSUNNY   51  51 100 E5        30.25S
TROY           FAIR      54  37  53 E7        30.28S
SAGINAW HB     FAIR      52  52 100 SE3       30.26R
$$
MIZ043>046-050>051-056>058-064>065-071>073-077>080-211400-
SOUTHWEST LOWER MICHIGAN

CITY           SKY/WX    TMP DP  RH WIND       PRES   REMARKS
BATTLE CREEK   PTSUNNY   58  52  80 SE12      30.22R
BENTON HARBOR  CLOUDY    59  56  89 E9        30.15S FOG
BIG RAPIDS     CLOUDY    51  50  98 E5        30.23R FOG
COLDWATER      PTSUNNY   57  54  87 E9        30.21S FOG
FREMONT        FAIR      55  52  90 E7        30.21S
HOLLAND        CLOUDY    57  53  86 E9        30.19F
GRAND RAPIDS   CLOUDY    56  51  84 E13       30.21S
IONIA          FAIR      56  53  89 E7        30.23R
KALAMAZOO      CLOUDY    59  54  83 VRB5      30.21R
MARSHALL       PTSUNNY   58  49  72 E9        30.22R
MOUNT PLEASANT PTSUNNY   51  51 100 SE3       30.25R
MUSKEGON       CLOUDY    56  50  80 E13       30.20S
SOUTH HAVEN    CLOUDY    58  56  95 E9        30.18R FOG
$$
MIZ016>042-211400-
NORTHERN LOWER MICHIGAN

CITY           SKY/WX    TMP DP  RH WIND       PRES   REMARKS
ALPENA         FAIR      57  50  77 NW3       30.26S
BEAVER ISLAND  FAIR      55  40  56 CALM      30.24F
BELLAIRE       FAIR      51  48  88 CALM      30.25S
CADILLAC       FAIR      49  49  99 E3        30.22S
CHARLEVOIX     FAIR      51  46  84 E5        30.27F
FRANKFORT      FAIR      50  49  95 CALM      30.21F
GAYLORD        FAIR      54  49  83 MISG      30.25S
HARBOR SPRINGS FAIR      53  47  80 CALM      30.25F
HOUGHTON LAKE  CLOUDY    49  48  97 NE6       30.25S FOG
MANISTEE       FAIR      49  47  93 E7        30.21S
PELLSTON       FAIR      54  40  59 CALM      30.26S
ROGERS CITY    FAIR      52  41  66 N3        30.27S
TRAVERSE CITY  PTSUNNY   48  43  82 CALM      30.23S
$$
MIZ007>008-015-211400-
EASTERN UPPER MICHIGAN

CITY           SKY/WX    TMP DP  RH WIND       PRES   REMARKS
KINROSS        FAIR      54  36  50 W6        30.25S
MACKINAC ISLAN FAIR      53  40  61 W3        30.25S
NEWBERRY       FAIR      54  37  53 CALM      30.24S
S. S. MARIE    FAIR      56  39  53 CALM      30.24S
$$
MIZ004>006-011>014-085-211400-
CENTRAL UPPER MICHIGAN

CITY           SKY/WX    TMP DP  RH WIND       PRES   REMARKS
MANISTIQUE     FAIR      55  39  54 CALM      30.23F
ESCANABA       FAIR      53  39  59 NE3       30.22F
SAWYER-GWINN   SUNNY     55  32  41 W3        30.22F
$$
MIZ001>003-009>011-084-211400-
WESTERN UPPER MICHIGAN

CITY           SKY/WX    TMP DP  RH WIND       PRES   REMARKS
IRON MOUNTAIN  FAIR      49  40  71 CALM      30.20F
HOUGHTON       FAIR      62  34  35 W9        30.18F
COPPER HARBOR    N/A     49  34  56 CALM      30.18F
IRONWOOD       FAIR      56  32  40 S7        30.19S
$$

ABBREVIATIONS USED IN REMARKS
   TC - TEMPERATURE IN CELSIUS
  WCI - WIND CHILL INDEX
   HX - HEAT INDEX
  VSB - VISIBILITY





USA.gov is the U.S. government's official web portal to all federal, state and local government web resources and services.